Location: Great Falls
(47.5000°N, 111.3000°W)
Time: 23:10:03
(UTC-06:00)

ISS - Visible Passes

Search period start: 22 October 2019 00:00
Search period end: 01 November 2019 00:00
Orbit: 411 x 421 km, 51.6° (Epoch: 23 October)

Date Brightness Start Highest point End Pass type
(mag) Time Alt. Az. Time Alt. Az. Time Alt. Az.
23 Oct -1.0 07:21:06 10° S 07:23:40 21° SE 07:26:15 10° E visible
24 Oct -0.7 06:33:39 10° SSE 06:35:19 13° SE 06:36:59 10° ESE visible
25 Oct -2.7 07:19:48 10° SW 07:23:02 45° SSE 07:26:17 10° ENE visible
26 Oct -2.0 06:31:35 10° SSW 06:34:34 29° SE 06:37:33 10° E visible
27 Oct -1.5 05:45:33 18° SSE 05:46:08 19° SE 05:48:37 10° E visible
27 Oct -3.8 07:19:09 10° WSW 07:22:32 86° NNW 07:25:55 10° ENE visible
28 Oct -3.5 06:32:18 27° SW 06:33:57 65° SSE 06:37:18 10° ENE visible
29 Oct -2.4 05:46:00 38° ESE 05:46:00 38° ESE 05:48:37 10° ENE visible
29 Oct -3.4 07:18:54 11° W 07:22:07 52° NNW 07:25:25 10° ENE visible
30 Oct -0.3 04:59:35 11° E 04:59:35 11° E 04:59:49 10° E visible
30 Oct -3.7 06:32:29 42° W 06:33:26 67° NNW 06:36:48 10° ENE visible
31 Oct -2.3 05:45:59 37° ENE 05:45:59 37° ENE 05:48:10 10° ENE visible
31 Oct -3.0 07:18:53 12° WNW 07:21:46 40° N 07:24:58 10° ENE visible
